Address 0xf97db1c0e3d429731fc5a7fa4eb4fd372a234841 3

 
Txn Hash Method
Block
From
To
Value [Txn Fee]
0x68be513569b40da8c5d44f8c8b99d76842357a2522b8bbe0466d6460d64b607fWithdraw Eth46539692022-01-15 0:59:112 days 3 hrs ago0xf97db1c0e3d429731fc5a7fa4eb4fd372a234841OUT0x00000000000000000000000000000000000000641 ETH0.001092151594 ETH
0x25e53de07f20b0e39d474dfb421eb3452e36b913d3cfcabf8dc217df1092c3e4Swap Exact Token...32535322021-11-22 21:55:5455 days 6 hrs ago0xf97db1c0e3d429731fc5a7fa4eb4fd372a234841OUT SushiSwap: Router0 ETH0.001282377855 ETH
0x84bb016d3a8f8e45a9cf40206e70a12938694aee87894c26d29366c372d2071bSwap Exact Token...6458472021-09-12 20:56:59126 days 7 hrs ago0xf97db1c0e3d429731fc5a7fa4eb4fd372a234841OUT SushiSwap: Router0 ETH0.000683225488 ETH
0xc31c3dc93b924191739a93d3189f297fa8bf929b781d0c07fa441460875deaec0x679b6ded4708742021-09-12 2:16:22127 days 1 hr ago0xf97db1c0e3d429731fc5a7fa4eb4fd372a234841OUT0x000000000000000000000000000000000000006e0.6 ETH0.000000082531 ETH
0xf60288af6c97b12445b357b089db0ff45debea10e3c4f5a5c9a349faa1872e05Approve2484512021-09-01 18:19:43137 days 9 hrs ago0xf97db1c0e3d429731fc5a7fa4eb4fd372a234841OUT 0x9d575a9bf57a5e24a99d29724b86ca021a2b04350 ETH0.001062542166 ETH
0xb9702cfc5157748d471f74e60d4c3f4e55858da7c66c122377f778c95b3ff7c6Swap Exact ETH F...2484492021-09-01 18:19:43137 days 9 hrs ago0xf97db1c0e3d429731fc5a7fa4eb4fd372a234841OUT SushiSwap: Router0.1 ETH0.00142678802 ETH
0xe2f1517602ca6793878a5a24e4efd26389e992d6894167966a91358f2608526aSwap Exact Token...2361412021-09-01 8:31:12137 days 19 hrs ago0xf97db1c0e3d429731fc5a7fa4eb4fd372a234841OUT SushiSwap: Router0 ETH0.00099740419 ETH
0x2f3811e511954c2d1a5366b679c8ed96910a3e8182926e1cb720579ea96d36a6Approve2358212021-09-01 8:16:26137 days 19 hrs ago0xf97db1c0e3d429731fc5a7fa4eb4fd372a234841OUT 0x86a1012d437bbff84fbdf62569d12d4fd3396f8c0 ETH0.001062050468 ETH
0x3db963b8f873970d41e4fe1ba3c3ee2a9866def1f025ef437b694d5e15932f72Swap Exact ETH F...2357572021-09-01 8:15:51137 days 19 hrs ago0xf97db1c0e3d429731fc5a7fa4eb4fd372a234841OUT SushiSwap: Router0.1 ETH0.001196612925 ETH
0x4c9d75a70d0f181637567f3552b23a00baef43294f1e96c67463eb0f556091e8Swap Exact ETH F...2351732021-09-01 7:17:05137 days 20 hrs ago0xf97db1c0e3d429731fc5a7fa4eb4fd372a234841OUT SushiSwap: Router0.1 ETH0.000976422964 ETH
0xdba628e579db2aa435a19f2eb7f3aa0e55022f5a5d8e6fd8132844c93f06feedApprove2347202021-09-01 6:58:28137 days 21 hrs ago0xf97db1c0e3d429731fc5a7fa4eb4fd372a234841OUT 0x2cdc8b6ea9d162e31024d3623e510b97aab04d120 ETH0.001063604384 ETH
0x53fd70edea78766c452ef9624b8b55cb94171e9c44333ecb10d9cfd3b1881af4Swap Exact ETH F...2347082021-09-01 6:57:41137 days 21 hrs ago0xf97db1c0e3d429731fc5a7fa4eb4fd372a234841OUT SushiSwap: Router0.05 ETH0.001199907451 ETH
0x7bccfd16ed408d2c2babf295e112a4242f11f794711aac16264d42c4a79d7a91Approve2337822021-09-01 6:13:56137 days 21 hrs ago0xf97db1c0e3d429731fc5a7fa4eb4fd372a234841OUT 0xac83ae62c28157fde5a2a360b83a7e4909e4eed50 ETH0.001069527551 ETH
0x51b41ddb679fcc9113008f785ccfd503eb02be732221d946a95f8a0c8b46943dSwap ETH For Exa...2337752021-09-01 6:13:56137 days 21 hrs ago0xf97db1c0e3d429731fc5a7fa4eb4fd372a234841OUT SushiSwap: Router0.050499919927865 ETH0.001218846643 ETH
0x51cc21b49be2b8ee9685b4702e20b7e8abaec96e8d3b64683a344cf4198afcfcSwap ETH For Exa...2337492021-09-01 6:13:03137 days 21 hrs ago0xf97db1c0e3d429731fc5a7fa4eb4fd372a234841OUT SushiSwap: Router0.051360574086357 ETH0.00098204719 ETH
0xd123c548e71c85dde3315500ed1699c8b65651f787a2b4312f9cd1558b1b977cApprove2335192021-09-01 6:00:42137 days 22 hrs ago0xf97db1c0e3d429731fc5a7fa4eb4fd372a234841OUT 0x3ca5884fbcd36643ab6dcce4007e9d0f914cdfb70 ETH0.001067956897 ETH
0x40c1926696c5f6e44188ccf50b74da2272c429668c7ced45e55d3f367d34c554Swap Exact ETH F...2335172021-09-01 6:00:42137 days 22 hrs ago0xf97db1c0e3d429731fc5a7fa4eb4fd372a234841OUT SushiSwap: Router0.04 ETH0.001206614683 ETH
0x3e42e3ea005c0fe936fa51f7d66337023586d1cbb42534912ff28ca1221a61b1Approve2334392021-09-01 5:58:23137 days 22 hrs ago0xf97db1c0e3d429731fc5a7fa4eb4fd372a234841OUT 0xe6e704afcf04d3da2780272395abef6ab0f0eea70 ETH0.00106964915 ETH
0x9a4ef4583aa545582fbdc9128c8d28b36ff5e6f64558c7fb5630416f4d74d3c9Swap Exact ETH F...2334342021-09-01 5:58:23137 days 22 hrs ago0xf97db1c0e3d429731fc5a7fa4eb4fd372a234841OUT SushiSwap: Router0.1 ETH0.001208717895 ETH
0xdfc5c5ac9fccc4281df0ad5c1e9c8b0f941097d5512158f21bc0765b051dd1daApprove2333252021-09-01 5:53:08137 days 22 hrs ago0xf97db1c0e3d429731fc5a7fa4eb4fd372a234841OUT 0xbb75e31d9151615383963d3498581a33d0dc45360 ETH0.001069508411 ETH
0xcacfa74395b525f790d8b827ff979494cb4926466cbb32fe75ccd16b50441212Swap ETH For Exa...2333182021-09-01 5:53:08137 days 22 hrs ago0xf97db1c0e3d429731fc5a7fa4eb4fd372a234841OUT SushiSwap: Router0.122826482436021 ETH0.001215510552 ETH
0x10583fd26fa971175b19d99cf028fccdcb35f7ef5190b790a4e36c0dfdc51967Swap Exact Token...2325332021-09-01 5:09:52137 days 22 hrs ago0xf97db1c0e3d429731fc5a7fa4eb4fd372a234841OUT SushiSwap: Router0 ETH0.001010885298 ETH
0x5091f2f82c8f1cf63e76ea80af556f9523b18d98e8acd6c43b6207bb88d84f0bApprove2324902021-09-01 5:07:50137 days 22 hrs ago0xf97db1c0e3d429731fc5a7fa4eb4fd372a234841OUT 0x08f6d3c2f7f99dcd276ace4113ac11d65566ba3d0 ETH0.001071270471 ETH
0xc37f29f1c21c23027c2a47af54e04e7b634bd9f78cf172c2d263b773fe0163f7Swap Exact ETH F...2324852021-09-01 5:07:50137 days 22 hrs ago0xf97db1c0e3d429731fc5a7fa4eb4fd372a234841OUT SushiSwap: Router0.1 ETH0.001205275967 ETH
0x9ed4bea9133e49cf82fb5df07ab8866d9babf8d3c404cd71c66be05d65583963Swap ETH For Exa...2316362021-09-01 4:19:22137 days 23 hrs ago0xf97db1c0e3d429731fc5a7fa4eb4fd372a234841OUT SushiSwap: Router0.307248541462509 ETH0.001221795419 ETH
[ Download CSV Export 
Parent Txn Hash Block From To Value
Loading

Contract Name:
0 ETH

Compiler Version
0

Optimization Enabled:
0 ETH

Other Settings:
-NA-
Block Transaction Gas Used Reward
Age Block Fee Address BC Fee Address Voting Power Jailed Incoming
Block Uncle Number Difficulty Gas Used Reward
Loading
Loading
Make sure to use the "Vote Down" button for any spammy posts, and the "Vote Up" for interesting conversations.